Regional Weather Roundup
Issued by NWS Upton, NY

Current Version | Previous Version | Graphics & Text | Print | Product List | Glossary Off
Versions: 1 2 3 4 5 6 7 8 9 10 11 12 13 14 15 16 17 18 19 20 21 22 23 24 25 26 27 28 29 30 31 32 33 34 35 36 37 38 39 40 41 42 43 44 45 46 47 48 49 50

000
ASUS41 KOKX 270905
RWROKX

REGIONAL WEATHER ROUNDUP
NATIONAL WEATHER SERVICE NEW YORK NY
500 AM EDT WED AUG 27 2014

NOTE: "FAIR" INDICATES FEW OR NO CLOUDS BELOW 12,000 FEET WITH NO
SIGNIFICANT WEATHER AND/OR OBSTRUCTIONS TO VISIBILITY.

NYZ071-072-176-178-NJZ106-104-271000-
NEW YORK CITY METRO AREA


CITY           SKY/WX    TMP DP  RH WIND       PRES   REMARKS
CENTRAL PARK   CLEAR     70  62  76 CALM      30.05F
LAGUARDIA APRT CLEAR     73  63  70 W5        30.02F
KENNEDY INTL   CLEAR     69  61  75 W7        30.04S
NEWARK/LIBERTY CLEAR     69  62  78 W5        30.03F
BRNX BOT. GARD   N/A     70  63  78 NW5       30.05R
TETERBORO      CLEAR     67  60  78 CALM      30.02S
$$

NYZ177-179-078>081-271000-
LONG ISLAND NEW YORK

CITY           SKY/WX    TMP DP  RH WIND       PRES   REMARKS
FARMINGDALE    CLEAR     66  62  87 CALM      30.04S
ISLIP          CLEAR     64  60  87 CALM      30.02S
SHIRLEY        CLEAR     60  58  92 CALM      30.04S
WESTHAMPTON    CLEAR     57  53  86 CALM      30.05S
MONTAUK POINT    N/A     67  64  90 CALM      30.04F
$$

NYZ052-065-067-271000-
HUDSON VALLEY

CITY           SKY/WX    TMP DP  RH WIND       PRES   REMARKS
WHITE PLAINS   CLEAR     66  61  84 W5        30.03F
NEWBURGH       CLEAR     66  64  94 CALM      30.04F
MONTGOMERY     CLEAR     62  60  93 SW5       30.03S
POUGHKEEPSIE   CLEAR     62  59  90 CALM      30.01F
ALBANY         MOCLDY    68  62  81 S5        29.99S
$$

NJZ001-105-106-008-010-013-015-019>022-104-271000-
NEW JERSEY

CITY           SKY/WX    TMP DP  RH WIND       PRES   REMARKS
NEWARK/LIBERTY CLEAR     69  62  78 W5        30.03F
TETERBORO      CLEAR     67  60  78 CALM      30.02S
CALDWELL       CLEAR     66  61  84 CALM      30.04F
MORRISTOWN     PTCLDY    61  57  88 CALM      30.04S
SOMERVILLE     CLEAR     61  59  93 CALM      30.03S
LINDEN         FAIR      71  65  82 CALM      30.04F
SUSSEX         CLEAR     62  59  90 CALM      30.05S FOG
ANDOVER          N/A     61  60  97 CALM      30.05F
TRENTON        CLEAR     64  61  90 CALM      30.04S
MILLVILLE      CLEAR     58  56  93 CALM      30.05S
ATLANTIC CITY  CLEAR     61  60  97 CALM      30.05S
WRIGHTSTOWN    CLEAR     63  62  99 CALM      30.02F
TOMS RIVER     CLEAR     55  52  88 CALM      30.05S
BELMAR         CLEAR     64  57  77 NW3       30.04S
$$

PAZ047>061-062-071-271000-
EASTERN PENNSYLVANIA

CITY           SKY/WX    TMP DP  RH WIND       PRES   REMARKS
PHILADELPHIA   CLEAR     69  61  75 SW3       30.05S
ALLENTOWN      CLEAR     63  60  90 NW3       30.05F
SCRANTON       CLEAR     61  58  90 SE3       30.06S
$$

CTZ002-004>006-009-010-012-RIZ004-006-007-MAZ004-011-015-271000-
SOUTHERN NEW ENGLAND
 IN CT

CITY           SKY/WX    TMP DP  RH WIND       PRES   REMARKS
BRADLEY INTL   PTCLDY    65  62  90 S7        30.00F
HARTFORD       CLEAR     65  62  90 S5        30.01F
DANBURY        CLEAR     62  59  90 CALM      30.04F
WTRBRY/OXFORD  CLEAR     64  57  77 W3        30.06S
BRIDGEPORT     CLEAR     70  63  78 W5        30.02F
MERIDEN        CLEAR     61  59  93 CALM      30.02F
NEW HAVEN      CLEAR     66  61  84 CALM      30.03S
CHESTER        FAIR      66  64  94 SW3       30.04S
GROTON         CLEAR     61  60  97 CALM      30.02S
WILLIMANTIC    CLEAR     60  57  89 CALM      30.03S

 IN RI

CITY           SKY/WX    TMP DP  RH WIND       PRES   REMARKS
PROVIDENCE     CLEAR     65  59  81 W6        30.02F
BLOCK ISLAND   CLEAR     66  63  88 W9        30.03F
WESTERLY       CLEAR     58  57  97 CALM      30.03F

 IN MA

CITY           SKY/WX    TMP DP  RH WIND       PRES   REMARKS
BOSTON         CLEAR     68  58  70 SW13      29.98F
WORCESTER      CLEAR     64  60  87 W13       30.02F
WESTFIELD      PTCLDY    64  62  93 CALM      30.01S
PROVINCETOWN   PTCLDY    64  61  88 MISG      30.01S
NANTUCKET      FOG       60  60 100 W3        30.04R VSB 3/4
$$

ANZ330-335-338-340-345-350-353-355-271000-
COASTAL MARINE OBSERVATIONS


STATION/POSITION TIME  SKY/WX   TEMP    WIND        PRES    VSBY  WAVE
                                AIR SEA DIR/SP/G                  HT/PER
                 (UTC)          (F)     (DEG/KT/KT) (MB)    (MI)  (FT/S)
NY HARB ENTRANCE NOT AVBL
4S FIRE IS       NOT AVBL
23SW MTP         0900                                 N/A           3/ 7
HUDSON CANYON    0900            71 72  270/  2/  2 1017.7          4/10
EXECUTION ROCKS  0900            73 74  250/  6/  8   N/A
WESTERN LI SOUND 0900            73     250/  6/  8   N/A           0
CENTRAL LI SOUND 0800            72 73  230/  8/ 10   N/A           1/ 2
EASTERN LI SOUND 0800            69 68  240/  4/  6   N/A
ROBBINS REEF     0900            70     290/  5/  6   N/A
$$


>>>>>>>>>>>>>>>>>>>>>>>>>>>> KEY <<<<<<<<<<<<<<<<<<<<<<<<<<<
>                                                          <
>     SKY/WX - SKY CONDITION/PRESENT WEATHER               <
>     TMP    - TEMPERATURE IN FAHRENHEIT                   <
>     DP     - DEWPOINT IN FAHRENHEIT                      <
>     RH     - RELATIVE HUMIDITY IN PERCENT                <
>     WIND   - DIRECTION AND SPEED IN MPH                  <
>     PRES   - MEAN SEA LEVEL PRESSURE IN INCHES OF HG     <
>     WCI    - WIND CHILL INDEX                            <
>     VSB    - VISIBILITY IN MILES                         <
>     HX     - HEAT INDEX                                  <
>     TC     - TEMPERATURE IN CELSIUS                      <
>     VRB    - VARIABLE WIND DIRECTION                     <
>                                                          <
>>>>>>>>>>>>>>>>>>>>>>>>>>>> KEY <<<<<<<<<<<<<<<<<<<<<<<<<<<




USA.gov is the U.S. government's official web portal to all federal, state and local government web resources and services.